星链-3724 (STARLINK-3724 )

导读

STARLINK-3724是美国SpaceX星链星座中的一颗通信卫星,于2022年4月21日发射入轨,属于星链星座大规模组网进程中的一员,运行在近地轨道。它承担着为全球范围内用户提供低延迟、高速率卫星互联网接入服务的任务,支撑星链覆盖偏远地区、移动网络补充等多元应用场景,是SpaceX构建全球卫星互联网星座布局的组成部分。

Basic Information
目录编号:
52305
目录名称:
STARLINK-3724
国际标识:
2022-041AW
轨道中心:
EARTH
卫星名称:
星链-3724
卫星全名:
星链-3724 (STARLINK-3724 )
卫星状态:
在轨 (已飞行1597 天)
发射日期:
2022-04-21 UTC
国别 :
美国 (US)
星等 :
--
Orbit Information
数据来源 国际轨道数据
星历时间: 2026-09-02T03:31:33+0800
2天前
查看轨道信息
半长轴: 6843.375km
偏心率: 0.0001206
轨道倾角: 53.162°
近地点辐角 84.313°
升交点赤经 19.085°
平近点角 275.801°
近地点: 464.412km
远地点: 466.064km
周期: 93.900分钟
每日圈数: 15.335476
Detailed Information
固有亮度:
5
最大亮度:
2.5
卫星平台:
Starlink v1.5
覆盖范围:
全球
运营商:
太空探索技术公司
运营商所在国:
美国
制造商(研发单位):
太空探索技术公司
制造商所在国:
美国
使用方式:
暂无
Satellite Introduction
星链(Starlink)计划是由太空探索技术公司(SpaceX)提出的一个巨型低轨卫星互联网星座项目,计划在2019年至2024年间在太空搭建由约1.2万颗卫星组成的“星链”网络,其中1584颗将部署在地球上空550千米处的近地轨道,并从2020年开始工作。该卫星仍在工作。
2D Orbit Map
3D Orbit Map
Orbit Altitude Analysis Chart
Orbit Inclination Analysis Chart
Orbit Comprehensive Analysis Chart
View Comprehensive Chart
Conjunction Data List
Event ID Objects TCA Miss Dist (km) Collision Risk Probability Collision Risk Index (CRI) Action
CDM_260903-131904-857505-230522
2026-09-03T
13:19:29+0000
1.307 km
极远距离
3.813604E-6 低风险 0.47
CDM_260830-183505-230506-955221
2026-08-30T
18:35:48+0000
1.866 km
极远距离
3.161564E-6 低风险 0.45
CDM_260905-005405-230506-788821
2026-09-05T
00:54:52+0000
2.160 km
极远距离
2.368042E-6 低风险 0.42
CDM_260903-023705-230506-477321
2026-09-03T
02:37:18+0000
2.052 km
极远距离
2.186326E-6 低风险 0.42
CDM_260904-152705-230505-894521
2026-09-04T
15:27:58+0000
2.188 km
极远距离
2.009461E-6 低风险 0.41
CDM_260904-140405-230505-888621
2026-09-04T
14:04:35+0000
2.231 km
极远距离
1.940491E-6 低风险 0.41
CDM_260902-231505-230506-921821
2026-09-02T
23:15:26+0000
2.372 km
极远距离
1.759409E-6 低风险 0.4
CDM_260903-112505-147205-230523
2026-09-03T
11:25:22+0000
2.356 km
极远距离
1.751207E-6 低风险 0.4
CDM_260904-215405-230506-803221
2026-09-04T
21:54:46+0000
2.673 km
极远距离
1.562811E-6 低风险 0.39
CDM_260904-131605-113705-230522
2026-09-04T
13:16:54+0000
2.542 km
极远距离
1.512089E-6 低风险 0.39